This demonstration page uses our WeatherBlox Daily Observations layout. Learn more.

38.89511, -77.03637

Hourly Observations for January 5, 2015

Temp ( °F °C ) Dew Point ( °F °C ) Humidity (%) Winds ( mph kmh ) Pressure ( in mb ) Visibility ( mi km ) Precip ( " mm )
12:52 am 00:52 Mostly Cloudy 50 10 28 -2 43 43 WNW 21 33 30 1016 10 16.09344 0 0
1:52 am 01:52 Mostly Cloudy 46 8 27 -3 46 46 WNW 12 19 30.06 1018 10 16.09344 0 0
2:52 am 02:52 Partly Cloudy 46 8 25 -4 43 43 WNW 16 26 30.09 1019 10 16.09344 0 0
3:52 am 03:52 Mostly Cloudy 45 7 27 -3 49 49 NW 17 28 30.09 1019 10 16.09344 0 0
4:52 am 04:52 Partly Cloudy 45 7 25 -4 46 46 NW 9 15 30.12 1020 10 16.09344 0 0
5:52 am 05:52 Mostly Cloudy 45 7 23 -5 42 42 WNW 13 20 30.15 1021 10 16.09344 0 0
6:52 am 06:52 Mostly Cloudy 43 6 21 -6 42 42 NW 12 19 30.18 1022 10 16.09344 0 0
7:52 am 07:52 Partly Cloudy 43 6 21 -6 42 42 NW 18 30 30.24 1024 10 16.09344 0 0
8:52 am 08:52 Partly Cloudy 43 6 19 -7 39 39 NW 22 35 30.27 1025 10 16.09344 0 0
9:52 am 09:52 Partly Cloudy 43 6 16 -9 34 34 NW 17 28 30.3 1026 10 16.09344 0 0
10:52 am 10:52 Partly Cloudy 41 5 12 -11 31 31 WNW 22 35 30.33 1027 10 16.09344 0 0
11:52 am 11:52 Partly Cloudy 41 5 7 -14 24 24 NW 22 35 30.33 1027 10 16.09344 0 0
12:52 pm 12:52 Partly Cloudy 41 5 7 -14 24 24 NW 10 17 30.3 1026 10 16.09344 0 0
1:52 pm 13:52 Partly Cloudy 39 4 7 -14 26 26 WNW 16 26 30.33 1027 10 16.09344 0 0
2:52 pm 14:52 Mostly Sunny 39 4 1 -17 20 20 WNW 17 28 30.36 1028 10 16.09344 0 0
3:52 pm 15:52 Mostly Sunny 37 3 1 -17 22 22 NW 14 22 30.39 1029 10 16.09344 0 0
4:52 pm 16:52 Mostly Cloudy 36 2 0 -18 21 21 NW 14 22 30.42 1030 10 16.09344 0 0
5:52 pm 17:52 Mostly Cloudy 34 1 1 -17 25 25 NNW 8 13 30.42 1030 10 16.09344 0 0
6:52 pm 18:52 Mostly Cloudy 34 1 1 -17 25 25 NW 9 15 30.45 1031 10 16.09344 0 0
7:52 pm 19:52 Mostly Cloudy 32 0 1 -17 27 27 NW 12 19 30.48 1032 10 16.09344 0 0
8:52 pm 20:52 Mostly Cloudy 32 0 1 -17 27 27 WNW 12 19 30.48 1032 10 16.09344 0 0
9:52 pm 21:52 Mostly Cloudy 30 -1 5 -15 34 34 N 10 17 30.48 1032 10 16.09344 0 0
10:52 pm 22:52 Cloudy 30 -1 0 -18 26 26 NNW 13 20 30.48 1032 10 16.09344 0 0
11:52 pm 23:52 Mostly Cloudy 30 -1 1 -17 29 29 NNW 9 15 30.48 1032 10 16.09344 0 0

Powered by AerisWeather